TimeEST,TemperatureF,Dew PointF,Humidity,Sea Level PressureIn,VisibilityMPH,Wind Direction,Wind SpeedMPH,Gust SpeedMPH,PrecipitationIn,Events,Conditions,WindDirDegrees,DateUTC
12:15 AM,23.0,6.8,50,30.30,10.0,NNE,4.6,-,N/A,,Clear,30,2013-01-23 05:15:00
12:35 AM,23.0,6.8,50,30.30,10.0,NNE,9.2,-,N/A,,Clear,20,2013-01-23 05:35:00
12:55 AM,21.2,5.0,50,30.31,10.0,NNE,3.5,-,N/A,,Clear,20,2013-01-23 05:55:00
1:15 AM,21.2,5.0,50,30.31,10.0,NNE,3.5,-,N/A,,Clear,20,2013-01-23 06:15:00
1:35 AM,21.2,6.8,54,30.31,10.0,North,5.8,-,N/A,,Clear,10,2013-01-23 06:35:00
1:55 AM,19.4,6.8,58,30.32,10.0,NNE,3.5,-,N/A,,Clear,20,2013-01-23 06:55:00
2:15 AM,19.4,6.8,58,30.33,10.0,North,3.5,-,N/A,,Clear,360,2013-01-23 07:15:00
2:35 AM,19.4,6.8,58,30.33,10.0,Calm,Calm,-,N/A,,Clear,0,2013-01-23 07:35:00
2:55 AM,19.4,6.8,58,30.33,10.0,NNE,3.5,-,N/A,,Clear,20,2013-01-23 07:55:00
3:15 AM,21.2,6.8,54,30.33,10.0,Calm,Calm,-,N/A,,Clear,0,2013-01-23 08:15:00
3:35 AM,21.2,5.0,50,30.33,10.0,Calm,Calm,-,N/A,,Clear,0,2013-01-23 08:35:00
3:55 AM,21.2,6.8,54,30.33,10.0,Calm,Calm,-,N/A,,Clear,0,2013-01-23 08:55:00
4:15 AM,21.2,6.8,54,30.33,10.0,Calm,Calm,-,N/A,,Clear,0,2013-01-23 09:15:00
4:35 AM,21.2,6.8,54,30.33,10.0,Calm,Calm,-,N/A,,Clear,0,2013-01-23 09:35:00
4:55 AM,21.2,6.8,54,30.33,10.0,Calm,Calm,-,N/A,,Mostly Cloudy,0,2013-01-23 09:55:00
5:15 AM,21.2,6.8,54,30.33,10.0,Calm,Calm,-,N/A,,Scattered Clouds,0,2013-01-23 10:15:00
5:35 AM,19.4,5.0,54,30.34,10.0,Calm,Calm,-,N/A,,Clear,0,2013-01-23 10:35:00
5:55 AM,19.4,6.8,58,30.35,10.0,Calm,Calm,-,N/A,,Clear,0,2013-01-23 10:55:00
6:15 AM,17.6,8.6,68,30.35,10.0,NW,3.5,-,N/A,,Clear,320,2013-01-23 11:15:00
6:35 AM,17.6,8.6,68,30.35,10.0,Calm,Calm,-,N/A,,Clear,0,2013-01-23 11:35:00
6:55 AM,17.6,10.4,73,30.36,10.0,Calm,Calm,-,N/A,,Clear,0,2013-01-23 11:55:00
7:15 AM,17.6,10.4,73,30.36,10.0,Calm,Calm,-,N/A,,Clear,0,2013-01-23 12:15:00
7:35 AM,17.6,10.4,73,30.37,10.0,Calm,Calm,-,N/A,,Clear,0,2013-01-23 12:35:00
7:55 AM,17.6,10.4,73,30.37,10.0,WNW,3.5,-,N/A,,Clear,290,2013-01-23 12:55:00
8:15 AM,19.4,8.6,63,30.38,10.0,WNW,3.5,-,N/A,,Clear,300,2013-01-23 13:15:00
8:35 AM,21.2,6.8,54,30.38,10.0,NNW,3.5,-,N/A,,Clear,330,2013-01-23 13:35:00
8:55 AM,21.2,6.8,54,30.38,10.0,NNW,3.5,-,N/A,,Clear,330,2013-01-23 13:55:00
9:15 AM,24.8,6.8,46,30.38,10.0,NW,4.6,-,N/A,,Clear,310,2013-01-23 14:15:00
9:35 AM,24.8,5.0,43,30.38,10.0,WNW,3.5,-,N/A,,Clear,290,2013-01-23 14:35:00
9:55 AM,26.6,3.2,37,30.38,10.0,Calm,Calm,-,N/A,,Clear,0,2013-01-23 14:55:00
10:15 AM,26.6,3.2,37,30.38,10.0,West,4.6,-,N/A,,Clear,270,2013-01-23 15:15:00
10:35 AM,28.4,3.2,34,30.38,10.0,NW,9.2,-,N/A,,Clear,310,2013-01-23 15:35:00
11:15 AM,30.2,3.2,32,30.36,10.0,WNW,11.5,18.4,N/A,,Clear,300,2013-01-23 16:15:00
11:35 AM,30.2,3.2,32,30.34,10.0,WNW,10.4,18.4,N/A,,Clear,300,2013-01-23 16:35:00
11:55 AM,30.2,3.2,32,30.32,10.0,West,16.1,20.7,N/A,,Clear,280,2013-01-23 16:55:00
12:15 PM,30.2,3.2,32,30.30,10.0,NW,13.8,19.6,N/A,,Clear,310,2013-01-23 17:15:00
12:35 PM,32.0,1.4,27,30.29,10.0,WNW,11.5,21.9,N/A,,Clear,290,2013-01-23 17:35:00
12:55 PM,33.8,1.4,25,30.28,10.0,NW,13.8,-,N/A,,Clear,310,2013-01-23 17:55:00
1:15 PM,33.8,3.2,28,30.27,-9999.0,West,10.4,17.3,N/A,,Clear,260,2013-01-23 18:15:00
1:35 PM,33.8,3.2,28,30.26,10.0,West,4.6,16.1,N/A,,Mostly Cloudy,280,2013-01-23 18:35:00
1:55 PM,33.8,1.4,25,30.26,10.0,West,5.8,-,N/A,,Mostly Cloudy,280,2013-01-23 18:55:00
2:15 PM,33.8,1.4,25,30.25,10.0,West,6.9,-,N/A,,Mostly Cloudy,280,2013-01-23 19:15:00
2:35 PM,33.8,1.4,25,30.24,10.0,NW,3.5,-,N/A,,Mostly Cloudy,310,2013-01-23 19:35:00
2:55 PM,35.6,3.2,26,30.24,10.0,NW,11.5,16.1,N/A,,Mostly Cloudy,320,2013-01-23 19:55:00
3:15 PM,35.6,1.4,24,30.23,10.0,WNW,11.5,-,N/A,,Scattered Clouds,300,2013-01-23 20:15:00
3:35 PM,33.8,3.2,28,30.24,10.0,WNW,8.1,-,N/A,,Overcast,300,2013-01-23 20:35:00
3:55 PM,33.8,3.2,28,30.24,10.0,NW,9.2,-,N/A,,Overcast,310,2013-01-23 20:55:00
4:15 PM,35.6,1.4,24,30.23,10.0,WNW,8.1,-,N/A,,Overcast,300,2013-01-23 21:15:00
4:35 PM,35.6,3.2,26,30.23,10.0,WNW,3.5,-,N/A,,Overcast,290,2013-01-23 21:35:00
4:55 PM,33.8,3.2,28,30.23,10.0,NW,6.9,-,N/A,,Scattered Clouds,310,2013-01-23 21:55:00
5:15 PM,33.8,3.2,28,30.23,10.0,NW,3.5,-,N/A,,Clear,310,2013-01-23 22:15:00
5:35 PM,30.2,3.2,32,30.22,10.0,Calm,Calm,-,N/A,,Scattered Clouds,0,2013-01-23 22:35:00
5:55 PM,30.2,8.6,40,30.22,10.0,Calm,Calm,-,N/A,,Overcast,0,2013-01-23 22:55:00
6:15 PM,30.2,10.4,44,30.22,10.0,Calm,Calm,-,N/A,,Overcast,0,2013-01-23 23:15:00
6:35 PM,30.2,10.4,44,30.21,10.0,Calm,Calm,-,N/A,,Overcast,0,2013-01-23 23:35:00
6:55 PM,30.2,12.2,47,30.21,10.0,Calm,Calm,-,N/A,,Overcast,0,2013-01-23 23:55:00
7:15 PM,30.2,12.2,47,30.20,10.0,Calm,Calm,-,N/A,,Overcast,0,2013-01-24 00:15:00
7:35 PM,30.2,12.2,47,30.20,10.0,Calm,Calm,-,N/A,,Overcast,0,2013-01-24 00:35:00
7:55 PM,30.2,12.2,47,30.19,10.0,Calm,Calm,-,N/A,,Overcast,0,2013-01-24 00:55:00
8:15 PM,30.2,10.4,44,30.19,10.0,Calm,Calm,-,N/A,,Overcast,0,2013-01-24 01:15:00
8:35 PM,30.2,10.4,44,30.18,10.0,Calm,Calm,-,N/A,,Overcast,0,2013-01-24 01:35:00
8:55 PM,32.0,12.2,44,30.18,10.0,Calm,Calm,-,N/A,,Overcast,0,2013-01-24 01:55:00
9:15 PM,33.8,8.6,35,30.17,10.0,South,5.8,-,N/A,,Overcast,170,2013-01-24 02:15:00
9:35 PM,33.8,6.8,32,30.17,10.0,South,6.9,-,N/A,,Overcast,180,2013-01-24 02:35:00
9:55 PM,33.8,8.6,35,30.17,10.0,South,3.5,-,N/A,,Overcast,190,2013-01-24 02:55:00
10:15 PM,33.8,8.6,35,30.16,10.0,South,3.5,-,N/A,,Overcast,170,2013-01-24 03:15:00
10:35 PM,33.8,10.4,38,30.15,10.0,Calm,Calm,-,N/A,,Overcast,0,2013-01-24 03:35:00
10:55 PM,33.8,12.2,41,30.14,10.0,SSE,4.6,-,N/A,,Overcast,160,2013-01-24 03:55:00
11:15 PM,33.8,12.2,41,30.13,10.0,SSE,3.5,-,N/A,,Overcast,150,2013-01-24 04:15:00
11:35 PM,33.8,15.8,48,30.13,10.0,Calm,Calm,-,N/A,,Overcast,0,2013-01-24 04:35:00
11:55 PM,33.8,15.8,48,30.12,10.0,Calm,Calm,-,N/A,,Overcast,0,2013-01-24 04:55:00